This demonstration page uses our WeatherBlox Daily Observations layout. Learn more.

Left ArrowRight Arrow

Hourly Observations for August 31, 2020

Temp ( °F °C ) Dew Point ( °F °C ) Humidity (%) Winds ( mph kmh ) Pressure ( in mb ) Visibility ( mi km ) Precip ( " mm )
12:53 am 00:53 Clear 59 15 57 13.9 93 93 N N/A 29.89 1012 10 16.0934 N/A
1:53 am 01:53 Clear 58 14.4 56 13.3 93 93 N N/A 29.88 1012 10 16.0934 N/A
2:53 am 02:53 Clear 58 14.4 56 13.3 93 93 N N/A 29.86 1011 10 16.0934 N/A
3:53 am 03:53 Mostly Cloudy 61 16.1 58 14.4 90 90 N N/A 29.87 1012 10 16.0934 N/A
4:53 am 04:53 Cloudy 65 18.3 58 14.4 78 78 E 3 6 29.86 1011 10 16.0934 N/A
5:53 am 05:53 Cloudy 65 18.3 58 14.4 78 78 NE 5 7 29.87 1012 10 16.0934 N/A
6:53 am 06:53 Mostly Cloudy 62 16.7 58 14.4 86 86 N N/A 29.86 1011 10 16.0934 N/A
7:53 am 07:53 Sunny 63 17.2 59 15 87 87 N N/A 29.88 1012 10 16.0934 N/A
8:18 am 08:18 Mostly Cloudy 65 18.3 59 15 81 81 E 6 9 29.89 1012 10 16.0934 N/A
8:53 am 08:53 Cloudy 67 19.4 62 16.7 84 84 E 6 9 29.89 1012 10 16.0934 N/A
9:12 am 09:12 Cloudy 67 19.4 62 16.7 84 84 N N/A 29.89 1012 10 16.0934 N/A
9:53 am 09:53 Cloudy 68 20 62 16.7 81 81 E 6 9 29.89 1012 10 16.0934 N/A
10:29 am 10:29 Cloudy 70 21.1 63 17.2 79 79 N N/A 29.88 1012 10 16.0934 N/A
10:53 am 10:53 Mostly Cloudy 71 21.7 63 17.2 76 76 E 5 7 29.88 1012 10 16.0934 N/A
11:53 am 11:53 Mostly Cloudy 77 25 66 18.9 69 69 VRB 5 7 29.86 1011 10 16.0934 N/A
12:53 pm 12:53 Partly Cloudy 77 25 66 18.9 69 69 VRB 5 7 29.86 1011 10 16.0934 N/A
1:53 pm 13:53 Partly Cloudy 78 25.6 67 19.4 69 69 N N/A 29.85 1011 10 16.0934 N/A
2:53 pm 14:53 Cloudy 81 27.2 68 20 65 65 E 3 6 29.84 1011 10 16.0934 N/A
3:53 pm 15:53 Partly Cloudy 82 27.8 68 20 63 63 ESE 3 6 29.82 1010 10 16.0934 N/A
4:53 pm 16:53 Mostly Cloudy 82 27.8 69 20.6 65 65 E 6 9 29.79 1009 10 16.0934 N/A
5:53 pm 17:53 Cloudy 80 26.7 69 20.6 69 69 ESE 5 7 29.8 1009 10 16.0934 N/A
6:53 pm 18:53 Cloudy 79 26.1 69 20.6 72 72 VRB 3 6 29.84 1011 10 16.0934 N/A
7:53 pm 19:53 Cloudy 77 25 69 20.6 77 77 VRB 3 6 29.85 1011 10 16.0934 N/A
8:18 pm 20:18 Cloudy 77 25 69 20.6 77 77 VRB 3 6 29.84 1011 10 16.0934 N/A
8:32 pm 20:32 Mostly Cloudy 76 24.4 69 20.6 79 79 N N/A 29.84 1010 10 16.0934 N/A
8:53 pm 20:53 Clear 76 24.4 69 20.6 79 79 VRB 3 6 29.85 1011 10 16.0934 N/A
9:53 pm 21:53 Clear 72 22.2 69 20.6 91 91 N N/A 29.86 1011 10 16.0934 N/A
10:53 pm 22:53 Clear 71 21.7 69 20.6 94 94 N N/A 29.86 1011 10 16.0934 N/A
11:53 pm 23:53 Clear 69 20.6 67 19.4 93 93 N N/A 29.9 1013 10 16.0934 N/A

Powered by AerisWeather